TimeEST,TemperatureF,Dew PointF,Humidity,Sea Level PressureIn,VisibilityMPH,Wind Direction,Wind SpeedMPH,Gust SpeedMPH,PrecipitationIn,Events,Conditions,WindDirDegrees,DateUTC
1:53 AM,36.0,26.1,67,30.24,10.0,SSW,8.1,-,N/A,,Clear,200,2012-12-14 06:53:00
2:53 AM,35.1,25.0,67,30.26,10.0,SSW,9.2,-,N/A,,Clear,210,2012-12-14 07:53:00
3:53 AM,34.0,25.0,70,30.26,10.0,South,8.1,-,N/A,,Clear,190,2012-12-14 08:53:00
4:53 AM,34.0,25.0,70,30.26,10.0,SSW,9.2,-,N/A,,Clear,200,2012-12-14 09:53:00
5:53 AM,34.0,24.1,67,30.25,10.0,SSW,8.1,-,N/A,,Clear,200,2012-12-14 10:53:00
7:53 AM,33.1,24.1,70,30.26,10.0,SSW,6.9,-,N/A,,Clear,200,2012-12-14 12:53:00
8:53 AM,35.1,25.0,67,30.27,10.0,South,4.6,-,N/A,,Clear,190,2012-12-14 13:53:00
9:53 AM,39.0,26.1,60,30.28,10.0,SSW,5.8,-,N/A,,Clear,210,2012-12-14 14:53:00
10:53 AM,42.1,26.1,53,30.29,10.0,WSW,6.9,-,N/A,,Clear,250,2012-12-14 15:53:00
11:53 AM,45.0,28.0,52,30.27,10.0,WSW,8.1,-,N/A,,Clear,240,2012-12-14 16:53:00
12:53 PM,46.9,28.0,48,30.25,10.0,WSW,5.8,-,N/A,,Clear,240,2012-12-14 17:53:00
1:53 PM,48.0,28.9,48,30.21,10.0,SSW,5.8,-,N/A,,Clear,210,2012-12-14 18:53:00
2:53 PM,48.9,30.0,48,30.19,10.0,South,6.9,-,N/A,,Clear,170,2012-12-14 19:53:00
3:53 PM,48.9,30.0,48,30.21,10.0,SW,4.6,-,N/A,,Clear,220,2012-12-14 20:53:00
4:53 PM,43.0,30.9,62,30.20,10.0,SSE,3.5,-,N/A,,Clear,160,2012-12-14 21:53:00
5:53 PM,41.0,30.0,65,30.19,10.0,SSE,5.8,-,N/A,,Clear,160,2012-12-14 22:53:00
6:53 PM,41.0,28.9,62,30.19,10.0,SSE,4.6,-,N/A,,Clear,150,2012-12-14 23:53:00
7:53 PM,41.0,28.9,62,30.21,10.0,SSE,5.8,-,N/A,,Clear,160,2012-12-15 00:53:00
8:53 PM,39.9,28.0,63,30.21,10.0,South,5.8,-,N/A,,Clear,170,2012-12-15 01:53:00
9:53 PM,37.0,28.0,70,30.19,10.0,SE,5.8,-,N/A,,Clear,140,2012-12-15 02:53:00
10:53 PM,39.0,27.0,62,30.18,10.0,SSE,5.8,-,N/A,,Clear,150,2012-12-15 03:53:00
11:53 PM,37.9,28.0,68,30.17,10.0,SSE,8.1,-,N/A,,Clear,150,2012-12-15 04:53:00